When you browse on this site, cookies collect data to enhance your experience and personalize the content and advertising you see.
Visit our Privacy Policy to learn more. By continuing to use the site, you agree to this use of cookies and data.
  • In Denmark
  • List of Countries
  • For 7 days
  • Water Temperature
  • Satellite Maps
  • Weather Map
  • Weather Widgets
  • user-avatar
    Login

    Hourly Weather Kalgoorlie

    Today, 18 November, Sunday

    Time Temperature Precipitation Wind Pressure Humidity
    00:00 +29°C° 0 mm 4 mps 724 mmHg 33%
    01:00 +28°C° 0 mm 4 mps 724 mmHg 35%
    02:00 +26°C° 0 mm 5 mps 724 mmHg 36%
    03:00 +26°C° 0 mm 5 mps 724 mmHg 39%
    04:00 +25°C° 0 mm 5 mps 724 mmHg 41%
    05:00 +23°C° 0 mm 6 mps 724 mmHg 44%
    06:00 +24°C° 0 mm 6 mps 725 mmHg 42%
    07:00 +26°C° 0 mm 6 mps 725 mmHg 41%
    08:00 +27°C° 0 mm 6 mps 726 mmHg 39%
    09:00 +28°C° 0 mm 6 mps 726 mmHg 33%
    10:00 +30°C° 0 mm 6 mps 725 mmHg 27%
    11:00 +32°C° 0 mm 6 mps 725 mmHg 21%
    12:00 +33°C° 0 mm 6 mps 725 mmHg 19%
    13:00 +33°C° 0 mm 7 mps 725 mmHg 17%
    14:00 +34°C° 0 mm 7 mps 724 mmHg 16%
    15:00 +34°C° 0 mm 7 mps 724 mmHg 16%
    16:00 +33°C° 0 mm 7 mps 724 mmHg 16%
    17:00 +33°C° 0 mm 8 mps 724 mmHg 16%
    18:00 +32°C° 0 mm 7 mps 724 mmHg 18%
    19:00 +30°C° 0 mm 6 mps 725 mmHg 20%
    20:00 +28°C° 0 mm 5 mps 725 mmHg 21%
    21:00 +27°C° 0 mm 5 mps 725 mmHg 26%
    22:00 +26°C° 0 mm 6 mps 726 mmHg 32%
    23:00 +24°C° 0 mm 6 mps 726 mmHg 37%

    Tomorrow, 19 November, Monday

    Time Temperature Precipitation Wind Pressure Humidity
    00:00 +22°C° 0 mm 6 mps 726 mmHg 45%
    01:00 +21°C° 0 mm 6 mps 726 mmHg 53%
    02:00 +19°C° 0 mm 6 mps 726 mmHg 60%
    03:00 +19°C° 0 mm 6 mps 726 mmHg 63%
    04:00 +17°C° 0 mm 5 mps 726 mmHg 66%
    05:00 +16°C° 0 mm 5 mps 727 mmHg 69%
    06:00 +17°C° 0 mm 5 mps 727 mmHg 68%
    07:00 +18°C° 0 mm 4 mps 728 mmHg 67%
    08:00 +19°C° 0 mm 4 mps 728 mmHg 65%
    09:00 +19°C° 0.1 mm 5 mps 728 mmHg 64%
    10:00 +19°C° 0.1 mm 5 mps 728 mmHg 63%
    11:00 +19°C° 0.1 mm 6 mps 728 mmHg 62%
    12:00 +20°C° 0 mm 6 mps 728 mmHg 57%
    13:00 +21°C° 0 mm 6 mps 728 mmHg 52%
    14:00 +22°C° 0 mm 5 mps 728 mmHg 47%
    15:00 +22°C° 0 mm 5 mps 728 mmHg 43%
    16:00 +22°C° 0 mm 5 mps 728 mmHg 39%
    17:00 +23°C° 0 mm 5 mps 728 mmHg 35%
    18:00 +22°C° 0 mm 5 mps 728 mmHg 34%
    19:00 +21°C° 0 mm 5 mps 729 mmHg 32%
    20:00 +21°C° 0 mm 5 mps 729 mmHg 31%
    21:00 +19°C° 0 mm 6 mps 729 mmHg 37%
    22:00 +16°C° 0 mm 7 mps 730 mmHg 43%
    23:00 +15°C° 0 mm 8 mps 730 mmHg 48%

    Day after tomorrow, 20 November, Tuesday

    Time Temperature Precipitation Wind Pressure Humidity
    00:00 +13°C° 0 mm 8 mps 730 mmHg 54%
    01:00 +12°C° 0 mm 7 mps 730 mmHg 60%
    02:00 +11°C° 0 mm 7 mps 730 mmHg 65%
    03:00 +10°C° 0 mm 6 mps 730 mmHg 67%
    04:00 +10°C° 0 mm 6 mps 730 mmHg 69%
    05:00 +9°C° 0 mm 5 mps 731 mmHg 70%
    06:00 +10°C° 0 mm 5 mps 731 mmHg 65%
    07:00 +12°C° 0 mm 5 mps 731 mmHg 60%
    08:00 +13°C° 0 mm 5 mps 732 mmHg 55%
    09:00 +14°C° 0 mm 4 mps 731 mmHg 49%
    10:00 +17°C° 0 mm 3 mps 731 mmHg 42%
    11:00 +18°C° 0 mm 3 mps 731 mmHg 35%
    12:00 +20°C° 0 mm 3 mps 730 mmHg 31%
    13:00 +21°C° 0 mm 4 mps 729 mmHg 27%
    14:00 +22°C° 0 mm 4 mps 728 mmHg 23%
    15:00 +23°C° 0 mm 5 mps 728 mmHg 22%
    16:00 +23°C° 0 mm 5 mps 728 mmHg 21%
    17:00 +23°C° 0 mm 6 mps 728 mmHg 21%
    18:00 +22°C° 0 mm 6 mps 729 mmHg 25%
    19:00 +20°C° 0 mm 7 mps 729 mmHg 30%
    20:00 +18°C° 0 mm 8 mps 729 mmHg 34%
    21:00 +16°C° 0 mm 8 mps 730 mmHg 37%
    22:00 +15°C° 0 mm 7 mps 730 mmHg 41%
    23:00 +14°C° 0 mm 7 mps 730 mmHg 44%

    21 November, Wednesday

    Time Temperature Precipitation Wind Pressure Humidity
    00:00 +14°C° 0 mm 6 mps 730 mmHg 46%
    01:00 +13°C° 0 mm 5 mps 730 mmHg 47%
    02:00 +13°C° 0 mm 5 mps 729 mmHg 49%
    03:00 +13°C° 0 mm 5 mps 729 mmHg 51%
    04:00 +12°C° 0 mm 4 mps 729 mmHg 54%
    05:00 +12°C° 0 mm 4 mps 729 mmHg 57%
    06:00 +13°C° 0 mm 4 mps 730 mmHg 55%
    07:00 +14°C° 0 mm 5 mps 730 mmHg 54%
    08:00 +15°C° 0 mm 5 mps 730 mmHg 52%
    09:00 +18°C° 0 mm 4 mps 730 mmHg 47%
    10:00 +19°C° 0 mm 4 mps 730 mmHg 42%
    11:00 +21°C° 0 mm 3 mps 730 mmHg 37%
    12:00 +22°C° 0 mm 3 mps 729 mmHg 34%
    13:00 +24°C° 0 mm 3 mps 728 mmHg 31%
    14:00 +25°C° 0 mm 3 mps 728 mmHg 28%
    15:00 +25°C° 0 mm 3 mps 727 mmHg 27%
    16:00 +26°C° 0 mm 3 mps 727 mmHg 27%
    17:00 +26°C° 0 mm 3 mps 727 mmHg 26%
    18:00 +25°C° 0 mm 4 mps 727 mmHg 29%
    19:00 +23°C° 0 mm 5 mps 728 mmHg 33%
    20:00 +22°C° 0 mm 7 mps 728 mmHg 36%
    21:00 +21°C° 0 mm 7 mps 728 mmHg 38%
    22:00 +20°C° 0 mm 8 mps 728 mmHg 41%
    23:00 +18°C° 0 mm 8 mps 727 mmHg 44%

    22 November, Thursday

    Time Temperature Precipitation Wind Pressure Humidity
    00:00 +18°C° 0 mm 9 mps 727 mmHg 43%
    01:00 +17°C° 0 mm 10 mps 726 mmHg 42%
    02:00 +17°C° 0 mm 10 mps 725 mmHg 41%
    03:00 +16°C° 0 mm 10 mps 725 mmHg 41%
    04:00 +16°C° 0 mm 11 mps 724 mmHg 42%
    05:00 +14°C° 0 mm 11 mps 724 mmHg 42%
    06:00 +16°C° 0.1 mm 11 mps 725 mmHg 41%
    07:00 +17°C° 0.1 mm 12 mps 725 mmHg 39%
    08:00 +18°C° 0.1 mm 12 mps 725 mmHg 38%
    09:00 +21°C° 0 mm 12 mps 725 mmHg 33%
    10:00 +23°C° 0 mm 12 mps 724 mmHg 28%
    11:00 +26°C° 0 mm 12 mps 723 mmHg 23%
    12:00 +29°C° 0 mm 12 mps 722 mmHg 20%
    13:00 +33°C° 0 mm 12 mps 720 mmHg 17%
    14:00 +37°C° 0 mm 12 mps 719 mmHg 14%
    15:00 +37°C° 0 mm 12 mps 718 mmHg 13%
    16:00 +37°C° 0 mm 12 mps 717 mmHg 12%
    17:00 +37°C° 0 mm 13 mps 716 mmHg 11%
    18:00 +34°C° 0 mm 11 mps 716 mmHg 13%
    19:00 +32°C° 0 mm 10 mps 717 mmHg 16%
    20:00 +29°C° 0 mm 9 mps 717 mmHg 19%
    21:00 +26°C° 0 mm 10 mps 718 mmHg 26%
    22:00 +23°C° 0 mm 12 mps 718 mmHg 34%
    23:00 +20°C° 0 mm 13 mps 718 mmHg 41%

    23 November, Friday

    Time Temperature Precipitation Wind Pressure Humidity
    00:00 +18°C° 0 mm 14 mps 719 mmHg 47%
    01:00 +17°C° 0 mm 15 mps 719 mmHg 53%
    02:00 +14°C° 0 mm 15 mps 719 mmHg 59%
    03:00 +14°C° 0 mm 14 mps 720 mmHg 62%
    04:00 +14°C° 0 mm 13 mps 721 mmHg 64%
    05:00 +13°C° 0 mm 12 mps 722 mmHg 66%
    06:00 +14°C° 0 mm 11 mps 723 mmHg 64%
    07:00 +16°C° 0 mm 11 mps 724 mmHg 61%
    08:00 +17°C° 0 mm 11 mps 725 mmHg 58%
    09:00 +17°C° 0 mm 10 mps 726 mmHg 56%
    10:00 +18°C° 0 mm 10 mps 726 mmHg 53%
    11:00 +19°C° 0 mm 9 mps 727 mmHg 51%
    12:00 +21°C° 0 mm 9 mps 727 mmHg 48%
    13:00 +21°C° 0 mm 8 mps 727 mmHg 45%
    14:00 +22°C° 0 mm 8 mps 727 mmHg 42%
    15:00 +22°C° 0 mm 8 mps 727 mmHg 42%
    16:00 +22°C° 0 mm 7 mps 727 mmHg 41%
    17:00 +22°C° 0 mm 7 mps 728 mmHg 41%
    18:00 +21°C° 0 mm 6 mps 728 mmHg 43%
    19:00 +20°C° 0 mm 5 mps 729 mmHg 46%
    20:00 +19°C° 0 mm 4 mps 730 mmHg 48%
    21:00 +19°C° 0 mm 3 mps 730 mmHg 50%
    22:00 +18°C° 0 mm 3 mps 730 mmHg 51%
    23:00 +18°C° 0 mm 3 mps 730 mmHg 53%
    Show more